Theta_e
326 323 324 322 309 307 300 301 306 304 305 309 310 308 306 308 305 303 325 333 334 340 349 352 353 353 353 353 352 352 352 353 352 351 349 349 347 346 344 343 342 341 340 339 338 337 336 336 337
322 320 322 316 304 298 299 304 303 306 308 310 310 309 308 305 314 318 323 332 335 340 348 351 350 353 353 353 353 352 353 352 351 350 349 349 346 345 344 342 341 341 340 339 336 334 332 332 334
321 317 315 309 304 299 299 304 305 307 309 308 308 311 309 308 316 318 327 333 337 341 348 350 349 352 352 352 352 351 351 350 349 348 348 348 347 345 343 342 340 339 338 337 336 332 329 327 331
319 318 313 304 300 302 302 304 306 307 308 309 309 306 311 318 320 326 330 334 336 341 347 348 350 351 352 352 351 351 351 349 348 348 346 346 346 344 343 340 338 337 336 336 333 330 326 324 326
317 314 305 302 300 302 304 306 307 306 307 308 308 305 308 315 326 329 333 334 335 339 346 350 348 349 350 349 349 350 350 349 348 349 347 347 344 342 340 339 337 336 335 334 332 328 324 322 325
311 311 301 299 300 303 305 307 307 306 307 307 306 307 308 316 319 326 330 333 336 339 344 347 342 343 345 346 347 348 348 348 348 347 345 346 344 342 340 338 336 334 333 332 330 327 323 320 322
308 305 301 302 301 301 304 308 305 305 305 306 309 305 309 311 319 326 328 333 337 340 342 343 346 345 337 342 343 344 345 346 346 345 345 344 342 341 339 338 336 335 333 332 329 326 323 319 319
310 306 300 301 300 300 306 306 307 306 305 309 310 305 306 308 314 324 321 322 322 325 333 339 341 344 345 348 337 339 341 343 343 342 340 337 336 335 334 333 336 334 333 331 328 325 322 316 311
310 301 299 299 300 302 307 304 307 309 307 308 308 307 306 309 313 316 317 316 316 315 316 319 325 336 339 342 340 335 335 338 338 338 333 331 341 337 334 330 334 335 333 331 328 324 320 312 308
306 301 300 303 304 304 306 305 306 305 305 305 305 307 308 309 310 310 310 310 310 311 312 313 316 320 332 338 342 344 345 345 345 344 344 343 341 339 334 326 328 330 330 331 328 323 319 320 314
305 301 301 302 305 306 305 304 307 304 303 305 305 305 305 306 307 307 307 308 308 310 312 314 315 315 320 335 340 344 344 345 343 342 342 342 341 337 335 331 329 329 324 328 327 325 326 322 317
302 303 303 304 305 304 304 306 304 304 303 304 304 304 305 304 304 304 305 306 308 310 312 315 317 318 317 330 338 340 341 342 341 341 341 340 341 338 333 331 331 330 331 327 326 326 326 322 318
303 304 304 306 305 305 304 303 304 303 303 303 303 303 302 303 303 304 305 307 308 309 312 315 318 320 320 322 337 339 336 331 329 330 332 335 335 335 334 331 330 330 328 329 327 323 323 323 320
304 303 304 304 304 304 301 303 302 301 303 302 301 301 301 301 301 303 303 305 306 310 312 313 316 322 320 327 332 326 326 325 323 325 328 328 329 328 328 326 326 326 326 326 323 319 317 319 320
303 300 304 304 304 302 303 299 299 302 302 301 300 301 300 299 300 300 302 304 307 309 307 309 317 325 324 321 318 319 319 318 317 316 319 322 325 324 323 321 318 318 319 316 315 312 312 315 314
301 301 298 303 301 301 301 298 300 301 300 301 301 300 299 298 299 300 302 304 307 303 305 309 314 314 312 310 310 310 312 310 311 311 313 316 318 320 319 316 314 316 314 314 311 309 311 312 311
300 296 298 299 302 300 300 300 300 300 300 301 300 299 298 298 298 299 301 304 302 302 304 306 309 308 306 304 304 304 305 307 309 311 312 313 314 314 312 312 313 313 310 308 308 306 306 307 308
297 297 298 297 300 299 299 299 299 299 300 300 300 299 298 297 297 298 300 303 301 303 304 305 307 306 305 305 304 303 302 303 304 305 305 307 308 310 311 310 310 309 308 308 309 308 308 306 305
300 298 297 300 300 297 299 299 302 299 299 299 299 298 297 297 297 298 300 303 301 302 302 304 306 305 307 307 305 304 301 300 298 299 300 300 302 303 304 304 304 305 304 304 305 306 307 306 305
298 296 296 300 298 296 298 298 302 300 299 300 299 297 297 295 296 297 299 301 301 302 303 304 306 308 309 307 304 301 298 297 296 295 295 295 296 296 297 298 298 299 299 298 299 301 302 303 303
296 295 296 296 296 297 296 295 298 302 299 298 298 298 297 296 295 295 297 298 300 300 301 302 303 304 303 302 299 298 298 296 294 293 292 293 294 294 294 294 294 294 294 293 293 294 294 297 298
293 299 297 295 293 291 297 289 298 300 294 294 294 295 295 296 296 295 295 296 296 296 298 299 299 300 301 303 301 300 295 291 291 291 292 292 293 292 292 293 293 293 292 292 292 292 292 292 290
295 298 296 295 293 293 294 289 295 296 291 291 293 294 295 295 294 293 293 293 293 295 295 296 296 296 297 297 296 294 292 292 291 291 291 291 291 292 290 291 291 290 290 291 291 291 291 290 289
298 295 293 293 293 287 292 291 293 291 292 293 293 294 294 294 293 292 292 291 291 292 293 293 292 292 293 293 294 293 291 291 291 291 290 290 290 289 289 289 289 288 289 289 289 289 289 288 289
296 293 288 286 284 284 292 292 294 297 295 295 293 293 294 293 292 290 289 289 290 290 290 290 290 289 291 292 292 292 292 292 290 290 290 289 288 287 287 287 287 287 286 287 288 288 287 287 286
292 294 289 283 285 288 286 285 292 295 296 295 295 294 294 292 291 290 290 290 289 289 289 289 289 288 289 289 290 290 291 290 290 289 289 287 287 286 286 286 286 286 286 285 286 286 286 286 286
293 290 297 288 283 283 288 291 295 292 291 293 293 293 292 291 291 290 290 289 289 288 288 288 288 288 288 289 289 289 289 289 288 288 288 287 286 285 285 285 285 285 285 284 284 284 284 285 285
295 297 287 288 282 281 287 289 290 288 289 290 292 291 292 291 290 290 289 289 289 288 288 288 288 288 288 289 289 288 288 288 288 287 286 286 285 285 284 284 284 283 283 283 283 283 283 282 283
290 289 291 292 290 286 284 287 295 295 293 290 291 292 292 291 291 290 290 289 289 288 288 287 288 287 287 288 288 288 288 287 287 287 286 285 284 284 283 282 282 282 281 281 281 281 281 281 281
296 292 292 287 285 288 287 289 292 296 296 294 292 292 293 293 292 291 290 289 288 287 287 287 287 287 288 288 288 288 287 287 286 286 285 285 283 283 282 281 281 280 280 280 279 279 279 279 279
Wind_Speed
10 6 5 5 6 3 5 5 1 3 4 6 4 7 11 13 11 6 4 5 3 9 13 13 10 11 13 14 9 8 8 9 10 9 9 11 11 12 12 12 12 13 13 13 13 14 13 12 11
7 6 4 3 5 6 6 6 5 5 6 2 2 2 6 13 10 8 4 5 2 8 11 13 10 11 13 14 10 8 7 9 10 9 10 10 10 11 11 11 12 12 12 13 13 14 14 13 11
7 5 5 4 4 5 6 4 6 5 3 1 3 4 4 6 11 6 5 4 5 8 9 10 9 12 13 14 11 8 7 8 8 8 8 9 8 10 11 11 11 12 12 13 13 14 13 13 11
4 5 4 7 2 4 5 5 4 6 3 1 2 9 8 9 6 7 5 5 5 7 7 12 6 7 12 12 12 12 10 8 8 8 7 8 11 11 11 10 10 11 12 12 13 14 13 13 12
4 4 4 3 3 5 4 4 2 4 4 5 2 7 7 8 9 8 7 5 5 5 7 9 6 2 5 8 10 11 11 10 9 10 10 11 13 12 11 9 9 10 11 12 13 14 14 14 12
4 4 6 6 5 5 4 3 2 2 3 6 3 7 8 9 8 7 5 6 4 6 4 6 6 1 2 5 6 8 8 10 9 7 8 9 13 12 10 8 9 9 10 11 11 12 13 13 13
5 5 5 4 6 6 4 3 6 4 5 6 2 5 10 11 8 5 6 7 7 6 4 3 6 8 3 4 4 7 8 9 9 9 8 9 8 10 10 10 10 10 11 11 12 12 12 12 12
4 4 3 5 7 6 5 5 1 4 6 2 3 4 8 9 6 3 6 8 8 8 7 5 3 3 6 6 7 3 4 6 8 7 7 10 10 10 10 11 9 10 11 10 10 10 10 9 9
2 5 6 4 6 4 6 7 3 1 3 3 4 6 5 6 3 2 4 6 5 6 6 4 4 2 4 4 2 3 4 3 3 6 8 10 7 8 9 10 9 10 9 10 9 8 6 3 5
4 4 1 4 1 4 6 4 3 5 6 7 7 8 6 6 5 3 3 4 5 6 5 5 5 4 2 3 4 5 5 6 6 7 9 7 4 3 8 7 8 9 7 7 8 6 2 1 4
1 4 2 3 2 0 3 4 2 5 6 8 4 5 6 6 6 5 5 6 6 6 6 7 6 5 4 3 2 1 2 2 2 3 4 4 5 6 4 3 3 2 4 3 3 2 4 5 4
6 2 1 2 3 2 4 2 4 4 6 5 5 5 4 6 6 7 7 8 8 8 8 8 7 4 3 4 2 1 2 2 2 6 7 3 2 3 3 2 2 2 1 3 2 3 4 4 4
6 2 3 3 4 5 1 7 7 5 4 5 6 4 5 5 5 5 6 6 8 8 9 9 8 5 1 5 3 3 6 7 7 8 9 7 7 5 3 2 0 1 1 1 2 3 3 2 2
3 3 5 5 8 6 6 7 4 5 7 6 4 4 4 5 5 4 6 7 8 7 9 10 9 6 4 6 9 8 7 8 8 8 9 9 6 4 5 4 3 4 4 4 3 4 4 5 3
2 7 9 12 10 6 6 9 12 10 9 6 5 3 2 3 3 4 5 6 7 8 8 10 8 13 12 12 10 8 8 9 8 8 10 10 8 9 8 6 5 5 5 6 4 3 3 2 5
5 4 8 8 8 4 9 7 10 8 10 8 3 2 0 2 3 4 5 6 8 7 8 8 8 13 13 11 9 9 9 9 8 9 9 12 13 11 9 7 6 6 4 5 4 3 3 3 3
9 11 9 5 8 4 11 3 10 6 10 8 6 4 3 2 1 3 4 4 6 5 6 7 9 12 12 12 10 11 11 9 8 8 9 12 12 13 10 8 8 9 8 6 5 4 4 5 5
10 12 11 11 8 8 10 14 9 9 9 9 8 7 6 4 2 2 3 3 5 6 7 7 7 11 12 9 9 8 9 8 9 10 10 11 10 12 10 9 9 7 7 7 7 6 5 5 7
9 11 12 7 4 4 13 16 11 13 10 10 9 8 7 5 4 4 4 4 6 6 7 7 6 6 5 6 7 8 10 9 10 10 14 13 12 12 11 8 9 8 8 9 9 7 7 6 9
13 15 16 13 4 5 13 17 15 14 14 13 11 10 9 9 8 7 7 7 6 7 7 8 8 7 7 7 7 8 9 10 10 10 12 12 12 13 11 10 9 10 8 10 10 9 6 6 8
16 17 15 15 2 11 13 20 22 16 9 7 8 9 10 11 11 10 9 9 8 8 8 8 10 11 10 11 9 9 10 8 9 9 9 10 11 11 11 11 9 9 8 8 10 10 11 7 7
17 14 15 13 6 11 5 11 5 14 13 14 14 13 14 14 12 10 10 10 9 8 7 9 9 10 8 7 8 10 9 10 8 9 8 9 11 12 12 12 11 10 8 9 8 9 7 8 7
7 3 7 11 14 16 17 10 11 8 13 18 18 17 17 15 14 13 11 9 8 8 8 9 10 10 10 10 10 8 11 9 9 9 10 10 9 11 11 10 10 9 7 8 9 8 8 7 6
10 6 3 3 9 14 17 17 13 12 13 17 19 19 19 18 16 13 10 8 8 7 8 9 11 11 10 9 9 11 12 11 8 8 7 6 6 7 9 9 9 9 7 7 6 7 8 7 6
13 8 5 6 7 9 3 16 16 5 8 16 24 23 22 18 16 13 12 10 9 9 9 9 10 11 9 9 10 9 10 11 11 8 6 7 6 6 8 8 8 7 8 7 6 6 6 7 6
19 17 8 7 9 8 1 11 8 5 10 7 17 21 21 20 17 15 14 12 11 10 9 10 9 11 10 10 11 10 10 6 7 7 6 6 6 6 6 6 7 8 8 8 7 5 5 6 5
11 15 14 5 2 5 8 11 6 8 7 9 18 19 21 20 18 18 16 13 12 11 10 10 10 10 10 10 9 9 8 8 8 9 7 6 7 6 5 5 5 6 6 7 7 5 5 5 5
7 10 7 7 7 9 9 13 10 12 16 15 20 22 21 18 18 16 15 14 13 12 11 11 11 11 10 10 8 8 8 8 8 7 8 8 7 6 5 4 4 4 5 5 6 4 5 5 4
9 10 10 6 10 4 5 8 11 15 19 22 19 20 21 21 19 17 15 14 13 12 12 12 12 12 10 9 8 9 8 8 8 7 7 7 6 5 4 3 3 3 3 4 4 4 4 6 6
18 15 20 7 7 10 6 11 4 4 15 18 19 20 21 21 19 17 16 15 14 13 13 14 12 11 10 10 10 9 9 8 7 7 7 6 6 4 3 3 2 2 2 3 3 4 5 6 7
Wind_Direction
280 296 288 249 236 233 123 97 14 92 119 47 44 12 62 38 21 48 87 105 76 154 141 162 161 153 147 134 134 134 134 125 116 123 126 112 102 100 90 86 83 74 65 59 54 52 50 48 42
309 301 238 281 250 177 111 125 115 64 70 69 98 174 61 77 52 94 122 72 60 158 157 166 162 163 152 136 138 146 136 123 116 117 116 112 108 104 93 85 77 68 60 56 47 44 39 35 37
279 279 268 270 292 85 127 147 108 98 83 149 128 9 24 43 54 60 42 65 113 145 169 138 158 174 150 136 143 150 143 133 121 114 107 109 110 110 101 83 74 67 60 55 47 42 36 33 33
287 203 217 255 144 69 93 119 100 144 120 100 13 93 100 39 35 31 76 57 114 142 169 118 155 169 150 148 165 167 152 138 130 125 120 117 102 99 105 92 79 70 59 56 48 40 38 36 31
233 250 245 233 123 117 113 85 130 158 108 110 287 115 85 55 70 64 86 62 111 141 164 143 157 189 166 177 189 169 155 148 152 150 140 136 119 107 102 91 79 72 62 56 46 40 37 35 35
234 286 240 202 169 135 131 119 183 198 127 115 154 117 81 70 56 57 52 76 74 108 136 154 158 269 246 233 205 171 164 156 161 164 143 140 136 127 112 97 83 75 68 66 55 46 43 38 37
294 261 288 295 169 173 151 150 210 160 159 99 27 167 122 62 39 60 73 74 77 92 133 171 189 190 230 284 229 189 178 175 175 177 178 150 117 106 100 89 82 75 66 68 56 49 43 39 39
293 269 249 228 191 197 148 176 109 261 100 98 354 170 157 34 3 92 77 82 76 58 42 28 10 21 259 233 203 227 256 203 178 174 160 135 130 122 119 116 92 93 88 83 70 62 47 47 45
308 249 234 224 231 180 153 192 153 47 217 78 40 42 27 1 345 129 142 94 78 64 46 36 0 7 317 283 52 202 223 251 159 141 143 154 162 166 158 97 102 104 113 115 105 93 68 62 88
267 266 300 3 36 196 157 237 161 221 185 155 113 85 43 43 42 65 42 35 35 26 28 12 350 332 303 276 248 254 233 237 234 214 168 202 188 83 109 113 113 113 112 122 119 103 130 342 26
139 282 90 151 120 313 173 223 213 251 233 41 360 78 52 59 60 57 47 36 15 3 17 7 350 327 279 243 265 262 239 254 274 235 217 201 138 142 119 128 131 130 153 136 148 166 35 44 28
245 185 242 117 151 204 218 347 242 266 67 69 68 80 62 55 52 36 23 14 7 5 7 0 348 325 267 219 188 132 28 11 5 25 35 25 96 101 98 108 128 133 127 73 24 21 39 59 54
247 168 192 177 185 226 292 246 269 183 121 110 103 92 72 53 35 41 20 23 4 2 359 1 350 333 240 205 136 95 67 63 61 54 40 40 44 55 90 74 87 52 133 124 42 46 345 51 68
30 262 243 218 225 230 228 224 209 168 152 136 140 99 69 46 23 25 18 10 9 5 11 358 349 307 164 148 86 86 82 76 61 48 43 46 54 58 60 44 23 3 17 59 48 36 7 352 346
277 271 240 224 229 234 215 227 227 136 167 160 159 136 86 42 32 32 20 17 11 30 11 9 357 35 68 74 70 69 70 70 63 55 44 44 51 50 47 54 42 33 35 55 41 38 7 354 342
250 244 255 115 183 173 204 258 145 169 186 189 194 184 241 43 21 27 28 30 41 36 33 23 48 61 63 65 65 68 69 67 61 55 50 50 49 50 56 49 42 39 39 36 41 22 343 3 317
209 265 214 195 200 158 208 233 157 194 203 207 206 204 203 182 109 47 37 44 57 59 69 68 80 85 85 81 79 75 77 74 75 74 66 59 62 66 63 48 41 47 44 35 28 11 356 353 349
259 224 249 253 162 216 219 251 166 182 208 211 205 202 202 199 120 67 56 67 71 74 85 86 88 99 103 101 97 88 81 77 69 66 62 62 61 62 64 63 60 48 44 34 27 29 27 18 339
289 277 264 273 100 260 242 256 222 191 209 215 209 199 188 165 118 104 91 95 91 86 89 98 107 144 136 115 106 93 84 79 72 62 57 53 50 53 57 61 56 61 49 41 31 11 11 26 355
241 252 255 262 155 247 267 261 254 189 214 220 211 194 177 159 147 134 119 109 91 97 96 98 96 88 84 91 92 93 97 85 83 77 67 62 59 55 56 53 48 45 50 42 34 31 10 29 20
234 244 255 262 141 237 273 266 248 222 208 211 215 188 171 167 152 144 137 127 122 107 99 95 95 98 96 101 104 104 109 103 91 78 70 60 63 64 66 66 62 56 48 47 36 24 25 26 20
244 228 253 266 244 264 175 282 267 198 202 205 199 182 174 161 152 144 144 132 123 114 112 106 105 105 100 121 126 111 107 103 88 82 77 66 55 56 57 56 55 53 50 46 39 32 29 20 26
251 94 224 246 257 270 247 267 258 152 213 205 196 188 176 168 163 156 147 134 124 122 111 106 103 96 101 107 107 107 110 112 112 105 95 83 69 60 57 55 56 54 51 49 41 39 32 26 28
128 109 94 243 258 252 236 225 251 194 213 191 191 188 175 170 166 158 148 147 133 128 117 107 102 96 96 101 109 114 115 115 112 107 99 92 83 68 55 56 55 52 50 41 37 33 37 26 22
195 174 242 230 210 256 321 219 256 162 185 184 180 182 176 169 167 166 169 169 151 136 125 119 114 111 109 109 111 109 107 107 111 113 106 102 83 67 52 50 48 46 43 44 28 34 33 23 13
199 198 200 250 238 262 77 235 242 9 132 178 177 175 171 173 174 176 177 170 159 150 143 136 132 130 129 122 115 113 113 106 96 92 95 93 95 87 65 53 52 44 34 28 23 25 18 16 5
173 223 235 318 130 269 216 243 215 156 163 175 174 175 177 177 177 178 176 176 167 165 159 155 148 140 135 130 121 113 109 106 109 106 104 104 103 102 88 75 59 49 42 28 15 20 14 1 357
228 165 173 205 224 238 240 244 239 204 188 176 177 184 180 178 178 181 181 179 175 172 167 163 159 153 144 133 128 123 121 123 128 130 124 120 120 119 105 88 71 55 42 29 12 3 4 350 346
181 211 223 220 221 254 274 240 192 201 187 184 184 183 180 182 183 183 182 182 181 176 174 169 164 157 153 146 141 142 147 145 141 137 135 131 129 126 115 96 77 63 37 26 6 352 350 339 332
226 213 207 207 195 237 279 257 159 158 178 178 181 185 186 184 181 182 182 181 182 183 180 177 171 166 164 161 164 168 158 161 155 149 144 142 145 138 124 111 100 70 34 12 356 341 342 326 321